Regional Weather Roundup
Issued by NWS

Home | Current Version | Previous Version | Graphics & Text | Print | Product List | Glossary On
Versions: 1 2 3 4 5 6 7 8 9 10 11 12 13 14 15 16 17 18 19 20 21 22 23 24 25 26 27 28 29 30 31 32 33 34 35 36 37 38 39 40 41 42 43 44 45 46 47 48 49 50
000
ASUS43 KDTX 221710
RWRMI
MICHIGAN HOURLY REGIONAL WEATHER ROUNDUP
NATIONAL WEATHER SERVICE DETROIT/PONTIAC MI
100 PM EDT FRI AUG 22 2014

NOTE: "FAIR" INDICATES FEW OR NO CLOUDS BELOW 12,000 FEET WITH NO
SIGNIFICANT WEATHER AND/OR OBSTRUCTION TO VISIBILITY.

MIZ047>049-052>055-059>063-066>070-074>076-081>083-221800-
SOUTHEAST LOWER MICHIGAN

CITY           SKY/WX    TMP DP  RH WIND       PRES   REMARKS
ADRIAN         CLOUDY    79  70  74 CALM      29.99S
ALMA           CLOUDY    76  68  75 E5        30.01R
ANN ARBOR      CLOUDY    78  69  73 MISG      30.00R
BAD AXE        PTSUNNY   73  67  81 E6        30.03R
CARO           CLOUDY    76  66  71 NW3       30.00S
DETROIT CITY   MOSUNNY   81  68  64 VRB5      29.99S
DETROIT        PTSUNNY   79  70  74 S3        29.99R
FLINT          CLOUDY    82  66  58 E3        30.00R
GROSSE ILE     MOSUNNY   79  72  78 CALM      29.98R HAZE
HILLSDALE      CLOUDY    78  74  90 N3        30.00F
HOWELL         CLOUDY    74  70  85 S3        30.02R

CITY           SKY/WX    TMP DP  RH WIND       PRES   REMARKS
JACKSON        CLOUDY    78  70  76 SW6       29.99S
LAMBERTVILLE   CLOUDY    81  70  69 CALM      29.98S
LANSING        CLOUDY    76  70  82 SW9       30.01R
LAPEER         FAIR      76  65  67 NE3       30.01S
MASON          CLOUDY    73  71  95 CALM      30.01R
MONROE         PTSUNNY   79  70  73 CALM      29.97S
MT. CLEMENS    PTSUNNY   79  66  63 SE5       29.98S
PONTIAC        PTSUNNY   77  65  66 CALM      29.99R
PORT HOPE        N/A     66  62  87 NE3       30.02R
PORT HURON     SUNNY     73  66  78 NE7       30.00R
TRI CITIES     CLOUDY    76  63  64 E5        30.02R
TROY           SUNNY     79  67  66 E3        30.01R
SAGINAW HB     CLOUDY    75  64  69 NE5       30.01R
$$
MIZ043>046-050>051-056>058-064>065-071>073-077>080-221800-
SOUTHWEST LOWER MICHIGAN

CITY           SKY/WX    TMP DP  RH WIND       PRES   REMARKS
BATTLE CREEK   CLOUDY    78  70  76 N3        29.99F
BENTON HARBOR  MOSUNNY   80  71  74 W10       29.96F
BIG RAPIDS     CLOUDY    74  69  85 E8        30.01R
COLDWATER      PTSUNNY   82  72  71 NW6       29.98F
FREMONT        PTSUNNY   77  71  81 E8        29.98S
HOLLAND        CLOUDY    78  72  81 CALM      29.98F
GRAND RAPIDS   CLOUDY    77  74  90 SE6       29.99S
IONIA          CLOUDY    73  71  96 MISG      30.00S FOG
KALAMAZOO      CLOUDY    78  71  79 NW5       29.98F
LUDINGTON      PTSUNNY   77  72  83 S6        29.97F
MARSHALL       CLOUDY    74  71  87 CALM      29.98F
MOUNT PLEASANT CLOUDY    75  66  73 NE5       30.01S
MUSKEGON       CLOUDY    80  71  74 S5        29.97F
SOUTH HAVEN    PTSUNNY   79  73  82 W3        29.97F
$$
MIZ016>042-221800-
NORTHERN LOWER MICHIGAN

CITY           SKY/WX    TMP DP  RH WIND       PRES   REMARKS
ALPENA         MOSUNNY   76  64  66 SE5       30.03R
BEAVER ISLAND  CLOUDY    73  67  83 E8        30.01R
BELLAIRE       PTSUNNY   78  64  62 SE6       30.00R
CADILLAC       CLOUDY    72  65  80 SE7       30.03R
CHARLEVOIX     CLOUDY    75  68  77 SE5       30.03S
FRANKFORT      CLOUDY    74  67  78 SE7       29.99S
GAYLORD        PTSUNNY   72  62  71 VRB7      30.03F
GRAYLING       CLOUDY    74  67  79 E5        30.04S
HARBOR SPRINGS CLOUDY    73  66  80 NE5       30.01S
HOUGHTON LAKE  CLOUDY    73  63  70 SE3       30.04R
MANISTEE       CLOUDY    75  68  78 CALM      29.99R
OSCODA         CLOUDY    72  63  72 CALM      30.02S
PELLSTON       CLOUDY    70  65  84 SE7       30.02S
ROGERS CITY    SUNNY     71  67  88 NE9       30.03S
TRAVERSE CITY  CLOUDY    78  65  63 SE6       29.99R
$$
MIZ007>008-015-221800-
EASTERN UPPER MICHIGAN

CITY           SKY/WX    TMP DP  RH WIND       PRES   REMARKS
KINROSS        PTSUNNY   75  64  69 E9        30.02S
MACKINAC ISLAN CLOUDY    68  65  89 CALM      30.02S
NEWBERRY       CLOUDY    68  64  86 S9        30.02R
S. S. MARIE    PTSUNNY   73  65  75 SE7       30.02F
MUNISING         N/A     76  65  68 SE7       29.99R
$$
MIZ004>006-011>014-085-221800-
CENTRAL UPPER MICHIGAN

CITY           SKY/WX    TMP DP  RH WIND       PRES   REMARKS
MANISTIQUE     CLOUDY    71  65  84 E8        30.01R
ESCANABA       CLOUDY    72  64  78 SE6       29.99S
MENOMINEE      CLOUDY    72  66  83 SE7       29.97R
SAWYER-GWINN   CLOUDY    72  64  78 S6        30.01R
$$
MIZ001>003-009>011-084-221800-
WESTERN UPPER MICHIGAN

CITY           SKY/WX    TMP DP  RH WIND       PRES   REMARKS
IRON MOUNTAIN  CLOUDY    68  65  90 E5        29.99R
HOUGHTON       CLOUDY    66  59  78 E10       30.00R
COPPER HARBOR    N/A     58  53  84 VRB3      30.00R
IRONWOOD       CLOUDY    70  66  88 NE5       29.95S
$$

ABBREVIATIONS USED IN REMARKS
   TC - TEMPERATURE IN CELSIUS
  WCI - WIND CHILL INDEX
   HX - HEAT INDEX
  VSB - VISIBILITY




USA.gov is the U.S. government's official web portal to all federal, state and local government web resources and services.